STARLINK-1305 (45377 NORAD) Tracking and Keplerian Element Data

This shows tracking and keplerian element data for the satellite.

Feedback or suggestion? Click here.




ElementValue
Catalog45377
NameSTARLINK-1305
Epoch Orbit1097
Epoch Day145.75001157
Epoch Year2020
RAAN300.9528
Inclination52.9989
Eccentricity0.0001431
Argument of Perigee86.8443
Mean Anonmoly255.7918
Mean Motion15.05594971
Decay Rate-3.033E-05
L11 45377U 20019T 20145.75001157 -.00003033 00000-0 -18898-3 0 9994
L22 45377 52.9989 300.9528 0001431 86.8443 255.7918 15.05594971 10979

Live tracking and technical data element details for STARLINK-1305 (NORAD 45377). STARLINK-1305 can be tracked NOW for your location showing map with azimuth and elevation plus other details from your city location.

Track the satellite on the map from your city or location and see movement details for azimuth, elevation, latitude, longitude, range, height, and movement on the map or in text.







IsCatalogInMostPopularTable: catalog: 45377, numindb: 13
Update: records affected: 1



GetName: 45377 STARLINK-1305

Hit Count: updated at: Tue, 26 May 2020 03:34:18 GMT